Regional Weather Roundup
Issued by NWS

Home | Current Version | Previous Version | Text Only | Print | Product List | Glossary On
Versions: 1 2 3 4 5 6 7 8 9 10 11 12 13 14 15 16 17 18 19 20 21 22 23 24 25 26 27 28 29 30 31 32 33 34 35 36 37 38 39 40 41 42 43 44 45 46 47 48 49 50
000
ASUS44 KEWX 011711
RWRTX
SOUTH TEXAS REGIONAL WEATHER ROUNDUP
NATIONAL WEATHER SERVICE AUSTIN/SAN ANTONIO TX
1200 PM CDT WED JUL 01 2015

NOTE: "FAIR" INDICATED FEW OR NO CLOUDS BELOW 12,000 FEET WITH NO
SIGNIFICANT WEATHER AND/OR OBSTRUCTIONS TO VISIBILITY.

* - THESE STATIONS ARE NOT NWS OR FAA STATIONS...AND ARE NOT SUBJECT
    TO NWS AND FAA QUALITY CONTROL.

TXZ171-172-183>190-011800-
TEXAS HILL COUNTRY AND EDWARDS PLATEAU

CITY           SKY/WX    TMP DP  RH WIND       PRES   REMARKS
JUNCTION       PTSUNNY   83  66  56 S10       30.08S
*LLANO         MOSUNNY   88  68  51 S13G23    30.10S HX  91
BURNET         PTSUNNY   84  69  60 SW12      30.10S
*HORSESHOE BAY PTSUNNY   85  69  58 SW7       30.08S
*KERRVILLE     SUNNY     82  71  69 S12       30.10S
*FREDERICKSBRG PTSUNNY   81  67  62 S14       30.09F
*ROCKSPRINGS   MOSUNNY   81  68  65 SE15      30.13F
*BOERNE STAGE  PTSUNNY   79  70  73 S9        30.10S
*CASTROVILLE   PTSUNNY   85  72  64 S7        30.07S HX  91
HONDO          MOSUNNY   84  72  67 S15       30.08S
*UVALDE        MOSUNNY   80  73  77 SE7       30.07S
DEL RIO        PTSUNNY   82  69  64 SE14      30.04S
LAUGHLIN AFB   MOSUNNY   82  73  72 S13       30.05S
CARRIZO SPRGS  MOSUNNY   82  72  69 S12G18    30.03F
$$

TXZ173-191>194-202-209-217>225-228-011800-
CENTRAL AND SOUTH CENTRAL TEXAS

CITY           SKY/WX    TMP DP  RH WIND       PRES   REMARKS
GEORGETOWN     PTSUNNY   82  70  65 S8        30.04S
AUSTIN/BERGSTM PTSUNNY   85  75  72 S10       30.05F HX  93
AUSTIN/MABRY     N/A     86  73  65 S6        30.06F HX  93
*AUSTIN/EXEC   MOSUNNY   84  73  70 SW12      30.06F HX  91
*LAGO VISTA    PTSUNNY   84  70  61 SW9       30.09S
SAN MARCOS     PTSUNNY  N/A N/A N/A S9          N/A
NEW BRAUNFELS  LGT RAIN  82  74  76 SE8       30.05F
RANDOLPH AFB   MOSUNNY   85  73  66 S8        30.06F HX  91
PT SAN ANTONIO MOSUNNY   84  74  71 S12       30.04F HX  91
SAN ANTONIO    PTSUNNY   86  73  65 S12       30.06F HX  93
STINSON FIELD  MOSUNNY   86  73  65 S9        30.04S HX  93
*PLEASANTON    MOSUNNY   85  73  67 SE7       30.05F HX  91
*LA GRANGE     MOSUNNY   87  77  73 S8        30.04S HX  98
*GIDDINGS      MOSUNNY   86  75  69 S6        30.09F HX  94
*GONZALES      SUNNY     87  75  67 S7        30.05S HX  96
$$

TXZ163>164-176>182-195>201-210>213-226-227-235-011800-
SOUTHEAST TEXAS

CITY           SKY/WX    TMP DP  RH WIND       PRES   REMARKS
COLLEGE STN    MOSUNNY   85  74  69 SW9       30.06F HX  92
*BRYAN         PTSUNNY   86  76  72 S7        30.08F HX  97
*CALDWELL      SUNNY     86  75  70 S12       30.09S HX  95
*CROCKETT      SUNNY     88  77  70 SW8       30.10F HX 100
*BRENHAM       MOSUNNY   87  75  66 S8        30.07S HX  97
HUNTSVILLE     MOSUNNY   86  74  67 SW8       30.08S HX  94
CONROE         MOSUNNY   86  73  65 S12       30.08S HX  93
HOUSTON BUSH   TSTM      79  72  78 S22G29    30.11R VSB 1
HOUSTON HOBBY  CLOUDY    77  69  76 SW9       30.07R
*HOUSTON SW AP TSTM      70  68  93 CALM      30.08S
PEARLAND       PTSUNNY   87  77  72 S12G22    30.08S THUNDER HX  99
HOUSTON HOOKS  PTSUNNY   87  76  69 S5        30.07F HX  97
ELLINGTON FLD  PTSUNNY   86  81  84 W6        30.08S HX 102
SUGAR LAND     LGT RAIN  77  71  82 S3        30.08S
*HOUSTON EXEC  LGT RAIN  75  72  88 SE5       30.10R
*CLEVELAND MUN NOT AVBL
*WHARTON       LGT RAIN  79  74  86 E5        30.07F
*COLUMBUS      FAIR      86  73  65 S7        30.06S HX  94
$$

TXZ214>216-236>238-011800-
THE UPPER TEXAS COAST

CITY           SKY/WX    TMP DP  RH WIND       PRES   REMARKS
*ORANGE        PTSUNNY   88  79  75 S12       30.11R HX 102
PORT ARTHUR    PTSUNNY   86  77  74 S13       30.07F HX  97
GALVESTON      MOSUNNY   89  80  74 S15       30.08S HX 106
ANGLETON       MOSUNNY   90  77  65 S13       30.06S HX 103
*BAY CITY      PTSUNNY   90  78  66 S13       30.06S HX 104
PALACIOS       PTSUNNY   89  78  70 S13       30.05S HX 103
$$

TXZ229>234-239>247-011800-
TEXAS COASTAL BEND AND RIO GRANDE PLAINS

CITY           SKY/WX    TMP DP  RH WIND       PRES   REMARKS
VICTORIA       PTSUNNY   90  76  63 SE16G25   30.04F HX 101
*BEEVILLE      PTSUNNY   79  74  84 S24G31    30.07R
ROCKPORT       LGT RAIN  74  71  91 SW15G25   30.08R FOG
*PORT ARANSAS  HVY RAIN  73  71  95 SW18G28   30.09R
*PORT LAVACA   PTSUNNY   87  77  72 SE13      30.05R HX  97
*INGLESIDE     LGT RAIN  74  71  91 SW21G28   30.08R
CORPUS CHRISTI RAIN      73  71  93 S14       30.10R FOG
CORPUS NAS     HVY RAIN  73  69  87 SW14      30.09R VSB 1
*ROBSTOWN      HVY RAIN  74  73  95 S15       30.11R
ALICE          LGT RAIN  73  71  93 S9        30.09R FOG
KINGSVILLE NAS RAIN      74  74 100 SE5       30.10R FOG
COTULLA        SUNNY     86  73  65 SE6       30.03F HX  93
*FAITH RANCH     N/A     86  70  58 SE12G20   30.03F HX  90
LAREDO         CLOUDY    79  70  74 SE18      30.06R
$$

TXZ248>255-011800-
DEEP SOUTH TEXAS

CITY           SKY/WX    TMP DP  RH WIND       PRES   REMARKS
BROWNSVILLE    LGT RAIN  75  72  90 S15       30.05R
PORT ISABEL    NOT AVBL
*SOUTH PADRE   CLOUDY    77  68  73 W17G24    30.04F
HARLINGEN      CLOUDY    74  69  85 S18       30.04F
*HEBBRONVILLE    N/A     72  70  93 SE15G22   30.08S
MCALLEN        LGT RAIN  78  72  81 SE17G24   30.04S
*WESLACO       DRIZZLE   74  70  87 SE9       30.04S
FALFURRIAS     CLOUDY    74  71  91 CALM      30.09R
EDINBURG       CLOUDY    79  71  77 SE15      30.05S
*ZAPATA        CLOUDY    77  71  82 SE14G20   30.04S
$$

TXZ213>215-236>238-242>244-246-247-251-254-255-011800-
CMAN STATIONS

STATION/POSITION TIME  TEMP    WIND        PRES    WAVE
                       AIR SEA DIR/SP/G            HT/PER
                 (UTC) (F)     (DEG/KT/KT) (MB)    (FT/S)
$$

GMZ080-GMZ150>470-011800-
OFFSHORE BUOY REPORTS

STATION/POSITION TIME  TEMP    WIND        PRES    WAVE
                       AIR SEA DIR/SP/G            HT/PER
                 (UTC) (F)     (DEG/KT/KT) (MB)    (FT/S)
$$



USA.gov is the U.S. government's official web portal to all federal, state and local government web resources and services.